| time (UTC) | temp F | wind direction | speed MPH | gust MPH | rain 1hr in | rain 24hr in | rain mn in | humidity % | barometer mb |
| 20260506194038 | 51 | 60 | 7.0 | 11.0 | 0.00 | 0.02 | 0.02 | 90 | 1008.5 |
| 20260506193758 | 51 | 70 | 7.0 | 10.0 | 0.00 | 0.02 | 0.02 | 89 | 1008.3 |
| 20260506193035 | 51 | 61 | 4.0 | 6.0 | 0.00 | 0.02 | 0.02 | 89 | 1008.3 |
| 20260506192537 | 51 | 53 | 2.0 | 7.0 | 0.00 | 0.02 | 0.02 | 88 | 1008.3 |
| 20260506192305 | 52 | 95 | 6.0 | 7.0 | 0.00 | 0.02 | 0.02 | 88 | 1008.3 |
| 20260506191532 | 52 | 98 | 3.0 | 6.0 | 0.00 | 0.02 | 0.02 | 88 | 1008.2 |
| 20260506191032 | 52 | 73 | 4.0 | 6.0 | 0.00 | 0.02 | 0.02 | 87 | 1008.1 |
| 20260506190750 | 52 | 66 | 3.0 | 5.0 | 0.00 | 0.02 | 0.02 | 87 | 1008.1 |
| 20260506190059 | 53 | 60 | 0.0 | 2.0 | 0.00 | 0.02 | 0.02 | 87 | 1008.1 |
| 20260506185528 | 53 | 60 | 0.0 | 2.0 | 0.00 | 0.02 | 0.02 | 87 | 1008.2 |
| 20260506185244 | 53 | 60 | 0.0 | 3.0 | 0.00 | 0.02 | 0.02 | 87 | 1008.1 |
| 20260506184811 | 53 | 60 | 1.0 | 4.0 | 0.00 | 0.02 | 0.02 | 87 | 1007.9 |
| 20260506184028 | 53 | 77 | 2.0 | 4.0 | 0.00 | 0.02 | 0.02 | 87 | 1008.0 |
| 20260506183527 | 53 | 75 | 2.0 | 4.0 | 0.00 | 0.02 | 0.02 | 87 | 1008.0 |
| 20260506183105 | 53 | 75 | 1.0 | 3.0 | 0.00 | 0.02 | 0.02 | 86 | 1008.0 |
| 20260506182528 | 53 | 75 | 1.0 | 4.0 | 0.00 | 0.02 | 0.02 | 86 | 1007.9 |
| 20260506182249 | 53 | 75 | 1.0 | 4.0 | 0.00 | 0.02 | 0.02 | 86 | 1007.9 |
| 20260506181530 | 54 | 75 | 2.0 | 3.0 | 0.00 | 0.02 | 0.02 | 86 | 1007.8 |
| 20260506181027 | 54 | 75 | 1.0 | 4.0 | 0.00 | 0.02 | 0.02 | 86 | 1007.6 |
| 20260506180527 | 54 | 75 | 3.0 | 4.0 | 0.00 | 0.02 | 0.02 | 86 | 1007.5 |
| 20260506180055 | 54 | 75 | 2.0 | 4.0 | 0.00 | 0.02 | 0.02 | 86 | 1007.5 |
| 20260506175527 | 54 | 75 | 2.0 | 6.0 | 0.00 | 0.02 | 0.02 | 86 | 1007.4 |
| 20260506175250 | 54 | 83 | 3.0 | 7.0 | 0.00 | 0.02 | 0.02 | 86 | 1007.3 |
| 20260506174758 | 54 | 84 | 5.0 | 7.0 | 0.00 | 0.02 | 0.02 | 86 | 1007.3 |
| 20260506174026 | 54 | 98 | 4.0 | 10.0 | 0.00 | 0.02 | 0.02 | 85 | 1007.4 |
| 20260506173804 | 54 | 98 | 5.0 | 10.0 | 0.00 | 0.02 | 0.02 | 85 | 1007.4 |
| 20260506173028 | 54 | 84 | 7.0 | 11.0 | 0.00 | 0.02 | 0.02 | 85 | 1007.2 |
| 20260506172525 | 54 | 85 | 7.0 | 12.0 | 0.00 | 0.02 | 0.02 | 85 | 1007.2 |
| 20260506172025 | 54 | 108 | 7.0 | 12.0 | 0.00 | 0.02 | 0.02 | 85 | 1007.2 |
| 20260506171526 | 54 | 81 | 8.0 | 14.0 | 0.00 | 0.02 | 0.02 | 85 | 1007.2 |
| 20260506171025 | 55 | 75 | 8.0 | 14.0 | 0.00 | 0.02 | 0.02 | 84 | 1007.2 |
| 20260506170525 | 55 | 84 | 9.0 | 13.0 | 0.00 | 0.02 | 0.02 | 84 | 1007.2 |
| 20260506170049 | 55 | 57 | 7.0 | 12.0 | 0.00 | 0.02 | 0.02 | 84 | 1007.1 |
| 20260506165525 | 55 | 84 | 7.0 | 11.0 | 0.00 | 0.02 | 0.02 | 84 | 1007.0 |
| 20260506165025 | 55 | 68 | 7.0 | 13.0 | 0.00 | 0.02 | 0.02 | 84 | 1007.0 |
| 20260506164528 | 55 | 87 | 7.0 | 13.0 | 0.00 | 0.02 | 0.02 | 83 | 1006.8 |
| 20260506164024 | 56 | 92 | 9.0 | 13.0 | 0.00 | 0.02 | 0.02 | 85 | 1006.9 |
| 20260506163745 | 55 | 84 | 7.0 | 13.0 | 0.00 | 0.02 | 0.02 | 84 | 1006.9 |
| 20260506163025 | 55 | 119 | 8.0 | 13.0 | 0.00 | 0.02 | 0.02 | 84 | 1007.1 |
| 20260506162526 | 56 | 60 | 6.0 | 14.0 | 0.00 | 0.02 | 0.02 | 83 | 1007.0 |
| 20260506162024 | 56 | 73 | 10.0 | 14.0 | 0.00 | 0.02 | 0.02 | 83 | 1007.1 |
| 20260506161744 | 56 | 87 | 9.0 | 14.0 | 0.00 | 0.02 | 0.02 | 81 | 1007.2 |
| 20260506161028 | 56 | 98 | 10.0 | 14.0 | 0.00 | 0.02 | 0.02 | 81 | 1007.2 |
| 20260506160521 | 57 | 75 | 9.0 | 14.0 | 0.00 | 0.02 | 0.02 | 79 | 1007.2 |
| 20260506160048 | 57 | 80 | 7.0 | 14.0 | 0.00 | 0.02 | 0.02 | 79 | 1007.2 |
| 20260506155750 | 57 | 107 | 6.0 | 9.0 | 0.00 | 0.02 | 0.02 | 76 | 1007.2 |
| 20260506155024 | 57 | 310 | 2.0 | 5.0 | 0.00 | 0.02 | 0.02 | 75 | 1007.1 |
| 20260506154747 | 57 | 236 | 4.0 | 6.0 | 0.00 | 0.02 | 0.02 | 75 | 1007.1 |
| 20260506154249 | 57 | 279 | 3.0 | 9.0 | 0.00 | 0.03 | 0.02 | 75 | 1007.0 |
| 20260506153528 | 57 | 300 | 4.0 | 9.0 | 0.00 | 0.03 | 0.02 | 76 | 1007.0 |
| 20260506153023 | 57 | 310 | 3.0 | 6.0 | 0.00 | 0.03 | 0.02 | 78 | 1007.0 |
| 20260506152756 | 57 | 310 | 2.0 | 5.0 | 0.00 | 0.03 | 0.02 | 80 | 1007.0 |
| 20260506152024 | 56 | 290 | 0.0 | 5.0 | 0.00 | 0.03 | 0.02 | 79 | 1007.0 |
| 20260506151521 | 56 | 310 | 3.0 | 6.0 | 0.00 | 0.03 | 0.02 | 77 | 1007.0 |
| 20260506151027 | 56 | 347 | 5.0 | 7.0 | 0.00 | 0.03 | 0.02 | 79 | 1006.9 |
| 20260506150529 | 56 | 335 | 5.0 | 7.0 | 0.00 | 0.03 | 0.02 | 78 | 1006.9 |
| 20260506150051 | 56 | 310 | 4.0 | 6.0 | 0.00 | 0.03 | 0.02 | 80 | 1006.9 |
| 20260506145741 | 57 | 310 | 3.0 | 9.0 | 0.00 | 0.03 | 0.02 | 77 | 1007.0 |
| 20260506145025 | 57 | 298 | 4.0 | 9.0 | 0.00 | 0.03 | 0.02 | 81 | 1007.0 |
| 20260506144525 | 56 | 307 | 4.0 | 9.0 | 0.00 | 0.03 | 0.02 | 82 | 1007.0 |
| 20260506144024 | 56 | 310 | 5.0 | 9.0 | 0.00 | 0.03 | 0.02 | 81 | 1007.0 |
| 20260506143528 | 56 | 335 | 6.0 | 9.0 | 0.00 | 0.03 | 0.02 | 81 | 1007.0 |
| 20260506143023 | 56 | 300 | 6.0 | 9.0 | 0.00 | 0.03 | 0.02 | 82 | 1007.1 |
| 20260506142523 | 56 | 351 | 4.0 | 9.0 | 0.00 | 0.03 | 0.02 | 82 | 1007.1 |
| 20260506142027 | 55 | 288 | 6.0 | 9.0 | 0.00 | 0.03 | 0.02 | 81 | 1007.0 |
| 20260506141523 | 55 | 295 | 5.0 | 9.0 | 0.00 | 0.03 | 0.02 | 82 | 1007.0 |
| 20260506141022 | 54 | 310 | 5.0 | 9.0 | 0.00 | 0.03 | 0.02 | 84 | 1007.0 |
| 20260506140526 | 54 | 347 | 5.0 | 9.0 | 0.00 | 0.03 | 0.02 | 85 | 1006.9 |
| 20260506140104 | 53 | 310 | 5.0 | 9.0 | 0.00 | 0.03 | 0.02 | 84 | 1006.9 |
| 20260506135524 | 53 | 300 | 6.0 | 10.0 | 0.00 | 0.03 | 0.02 | 85 | 1007.0 |
| 20260506135026 | 53 | 290 | 6.0 | 10.0 | 0.00 | 0.03 | 0.02 | 85 | 1007.0 |
| 20260506134524 | 53 | 231 | 4.0 | 9.0 | 0.00 | 0.03 | 0.02 | 85 | 1007.1 |
| 20260506134023 | 53 | 255 | 4.0 | 11.0 | 0.00 | 0.03 | 0.02 | 85 | 1007.1 |
| 20260506133523 | 53 | 307 | 8.0 | 11.0 | 0.00 | 0.03 | 0.02 | 85 | 1007.0 |
| 20260506133022 | 53 | 286 | 5.0 | 10.0 | 0.00 | 0.03 | 0.02 | 86 | 1007.0 |
| 20260506132524 | 53 | 252 | 6.0 | 10.0 | 0.00 | 0.04 | 0.02 | 85 | 1007.0 |
| 20260506132042 | 53 | 297 | 7.0 | 12.0 | 0.00 | 0.04 | 0.02 | 85 | 1007.0 |
| 20260506131526 | 53 | 303 | 7.0 | 12.0 | 0.00 | 0.04 | 0.02 | 85 | 1007.0 |
| 20260506131003 | 53 | 300 | 7.0 | 14.0 | 0.00 | 0.04 | 0.02 | 85 | 1007.0 |
| 20260506130523 | 53 | 310 | 7.0 | 14.0 | 0.00 | 0.04 | 0.02 | 84 | 1006.8 |
| 20260506130323 | 53 | 297 | 7.0 | 14.0 | 0.00 | 0.04 | 0.02 | 85 | 1006.9 |
| 20260506125525 | 53 | 297 | 10.0 | 13.0 | 0.00 | 0.04 | 0.02 | 85 | 1006.8 |
| 20260506125024 | 53 | 301 | 8.0 | 13.0 | 0.00 | 0.04 | 0.02 | 85 | 1006.7 |
| 20260506124747 | 53 | 304 | 10.0 | 13.0 | 0.00 | 0.04 | 0.02 | 86 | 1006.7 |
| 20260506124024 | 53 | 307 | 7.0 | 12.0 | 0.00 | 0.04 | 0.02 | 86 | 1006.7 |
| 20260506123524 | 53 | 307 | 8.0 | 12.0 | 0.00 | 0.04 | 0.02 | 88 | 1006.7 |
| 20260506122957 | 53 | 327 | 4.0 | 11.0 | 0.00 | 0.04 | 0.02 | 88 | 1006.8 |
| 20260506122458 | 53 | 335 | 5.0 | 11.0 | 0.00 | 0.04 | 0.02 | 89 | 1006.7 |
| 20260506121958 | 53 | 307 | 8.0 | 11.0 | 0.00 | 0.04 | 0.02 | 89 | 1006.7 |
| 20260506121457 | 52 | 310 | 6.0 | 12.0 | 0.00 | 0.04 | 0.02 | 90 | 1006.7 |
| 20260506120955 | 52 | 304 | 7.0 | 12.0 | 0.00 | 0.04 | 0.02 | 90 | 1006.6 |
| 20260506120455 | 52 | 310 | 6.0 | 10.0 | 0.00 | 0.04 | 0.02 | 90 | 1006.5 |
| 20260506120248 | 52 | 341 | 3.0 | 9.0 | 0.00 | 0.04 | 0.02 | 90 | 1006.5 |
| 20260506115453 | 52 | 331 | 6.0 | 9.0 | 0.00 | 0.04 | 0.02 | 90 | 1006.4 |
| 20260506114951 | 52 | 310 | 6.0 | 10.0 | 0.00 | 0.04 | 0.02 | 90 | 1006.4 |
| 20260506114451 | 52 | 310 | 7.0 | 11.0 | 0.00 | 0.04 | 0.02 | 90 | 1006.3 |
| 20260506113949 | 52 | 327 | 5.0 | 11.0 | 0.00 | 0.04 | 0.02 | 90 | 1006.3 |
| 20260506113449 | 52 | 310 | 6.0 | 11.0 | 0.00 | 0.04 | 0.02 | 90 | 1006.3 |
| 20260506112948 | 52 | 328 | 7.0 | 12.0 | 0.00 | 0.04 | 0.02 | 90 | 1006.3 |
| 20260506112447 | 52 | 310 | 8.0 | 12.0 | 0.01 | 0.04 | 0.02 | 90 | 1006.3 |
| 20260506111946 | 52 | 301 | 7.0 | 11.0 | 0.01 | 0.04 | 0.02 | 90 | 1006.3 |
| 20260506111445 | 52 | 310 | 6.0 | 11.0 | 0.01 | 0.04 | 0.02 | 91 | 1006.3 |
| 20260506110946 | 52 | 310 | 6.0 | 11.0 | 0.01 | 0.04 | 0.02 | 91 | 1006.2 |
| 20260506110445 | 52 | 310 | 8.0 | 11.0 | 0.01 | 0.04 | 0.02 | 91 | 1006.1 |
| 20260506105944 | 52 | 301 | 6.0 | 10.0 | 0.01 | 0.03 | 0.02 | 92 | 1006.2 |
| 20260506105443 | 52 | 293 | 5.0 | 9.0 | 0.01 | 0.03 | 0.02 | 92 | 1006.1 |
| 20260506104442 | 53 | 333 | 4.0 | 9.0 | 0.01 | 0.03 | 0.02 | 93 | 1006.1 |
| 20260506104213 | 53 | 310 | 6.0 | 9.0 | 0.01 | 0.03 | 0.02 | 93 | 1005.9 |
| 20260506103440 | 53 | 310 | 4.0 | 6.0 | 0.01 | 0.03 | 0.02 | 92 | 1005.9 |
| 20260506102440 | 53 | 52 | 2.0 | 3.0 | 0.00 | 0.03 | 0.01 | 92 | 1006.1 |
| 20260506101938 | 53 | 50 | 1.0 | 3.0 | 0.00 | 0.03 | 0.01 | 92 | 1006.1 |
| 20260506101438 | 53 | 54 | 1.0 | 3.0 | 0.00 | 0.03 | 0.01 | 92 | 1006.1 |
| 20260506100939 | 53 | 67 | 1.0 | 3.0 | 0.00 | 0.03 | 0.01 | 91 | 1006.1 |
| 20260506100441 | 53 | 211 | 1.0 | 3.0 | 0.00 | 0.03 | 0.01 | 91 | 1005.9 |
| 20260506095938 | 53 | 211 | 0.0 | 3.0 | 0.00 | 0.03 | 0.01 | 90 | 1005.9 |
| 20260506095439 | 53 | 211 | 1.0 | 5.0 | 0.00 | 0.03 | 0.01 | 91 | 1005.7 |
| 20260506094939 | 53 | 193 | 4.0 | 5.0 | 0.00 | 0.03 | 0.01 | 91 | 1005.7 |
| 20260506094433 | 53 | 184 | 3.0 | 4.0 | 0.00 | 0.03 | 0.01 | 91 | 1005.6 |
| 20260506094203 | 53 | 94 | 0.0 | 2.0 | 0.00 | 0.03 | 0.01 | 92 | 1005.4 |
| 20260506093432 | 53 | 94 | 1.0 | 2.0 | 0.00 | 0.03 | 0.01 | 92 | 1005.2 |
| 20260506092931 | 53 | 94 | 0.0 | 2.0 | 0.00 | 0.03 | 0.01 | 93 | 1005.1 |
| 20260506092431 | 52 | 94 | 2.0 | 2.0 | 0.00 | 0.03 | 0.01 | 93 | 1005.0 |
| 20260506091933 | 52 | 94 | 0.0 | 2.0 | 0.00 | 0.03 | 0.01 | 93 | 1005.0 |
| 20260506091431 | 52 | 94 | 0.0 | 2.0 | 0.00 | 0.03 | 0.01 | 93 | 1005.1 |
| 20260506090931 | 52 | 94 | 0.0 | 1.0 | 0.00 | 0.03 | 0.01 | 93 | 1005.1 |
| 20260506090431 | 52 | 94 | 0.0 | 3.0 | 0.00 | 0.03 | 0.01 | 93 | 1005.0 |
| 20260506085945 | 52 | 94 | 0.0 | 3.0 | 0.00 | 0.03 | 0.01 | 94 | 1005.0 |
| 20260506085701 | 52 | 94 | 2.0 | 5.0 | 0.00 | 0.03 | 0.01 | 94 | 1005.0 |
| 20260506084931 | 52 | 94 | 2.0 | 5.0 | 0.00 | 0.03 | 0.01 | 93 | 1005.0 |
| 20260506084431 | 52 | 115 | 0.0 | 4.0 | 0.00 | 0.03 | 0.01 | 94 | 1004.8 |
| 20260506083932 | 52 | 49 | 3.0 | 4.0 | 0.00 | 0.03 | 0.01 | 94 | 1004.8 |
| 20260506083431 | 51 | 49 | 2.0 | 3.0 | 0.00 | 0.03 | 0.01 | 94 | 1004.8 |
| 20260506082931 | 51 | 64 | 2.0 | 3.0 | 0.00 | 0.03 | 0.01 | 94 | 1004.9 |
| 20260506082702 | 51 | 64 | 2.0 | 3.0 | 0.00 | 0.03 | 0.01 | 94 | 1004.8 |
| 20260506081931 | 51 | 64 | 0.0 | 2.0 | 0.00 | 0.03 | 0.01 | 94 | 1004.8 |
| 20260506081431 | 51 | 64 | 0.0 | 2.0 | 0.00 | 0.03 | 0.01 | 94 | 1004.7 |
| 20260506080931 | 50 | 64 | 0.0 | 2.0 | 0.00 | 0.03 | 0.01 | 94 | 1004.6 |
| 20260506080431 | 50 | 64 | 1.0 | 2.0 | 0.00 | 0.03 | 0.01 | 94 | 1004.6 |
| 20260506073431 | 50 | 136 | 1.0 | 3.0 | 0.00 | 0.03 | 0.01 | 94 | 1004.8 |
| 20260506072931 | 50 | 193 | 0.0 | 2.0 | 0.00 | 0.03 | 0.01 | 94 | 1004.7 |
| 20260506072430 | 50 | 193 | 0.0 | 3.0 | 0.00 | 0.03 | 0.01 | 94 | 1004.7 |
| 20260506071931 | 50 | 193 | 2.0 | 3.0 | 0.00 | 0.03 | 0.01 | 94 | 1004.6 |
| 20260506071704 | 50 | 133 | 0.0 | 3.0 | 0.00 | 0.03 | 0.01 | 94 | 1004.7 |
| 20260506071207 | 50 | 133 | 0.0 | 3.0 | 0.00 | 0.03 | 0.01 | 95 | 1004.6 |
| 20260506070430 | 50 | 133 | 2.0 | 4.0 | 0.00 | 0.03 | 0.01 | 94 | 1004.6 |
| 20260506062431 | 49 | 286 | 1.0 | 3.0 | 0.00 | 0.03 | 0.01 | 95 | 1004.7 |
| 20260506061929 | 48 | 286 | 0.0 | 3.0 | 0.00 | 0.03 | 0.01 | 95 | 1004.9 |
| 20260506061428 | 48 | 246 | 1.0 | 3.0 | 0.00 | 0.03 | 0.01 | 95 | 1004.9 |
| 20260506060929 | 48 | 242 | 2.0 | 3.0 | 0.00 | 0.03 | 0.01 | 95 | 1004.9 |
| 20260506060427 | 48 | 178 | 0.0 | 0.0 | 0.00 | 0.03 | 0.01 | 95 | 1004.9 |
| 20260506060217 | 48 | 178 | 0.0 | 0.0 | 0.00 | 0.03 | 0.01 | 95 | 1004.9 |
| 20260506050419 | 47 | 178 | 2.0 | 4.0 | 0.00 | 0.04 | 0.01 | 94 | 1004.7 |
| 20260506050214 | 47 | 178 | 3.0 | 4.0 | 0.00 | 0.04 | 0.01 | 94 | 1004.8 |
| 20260506044919 | 47 | 286 | 0.0 | 2.0 | 0.00 | 0.04 | 0.01 | 94 | 1004.7 |
| 20260506044419 | 47 | 286 | 1.0 | 2.0 | 0.00 | 0.04 | 0.01 | 94 | 1004.7 |
| 20260506043919 | 47 | 160 | 0.0 | 0.0 | 0.00 | 0.04 | 0.01 | 94 | 1004.8 |
| 20260506043651 | 47 | 160 | 0.0 | 0.0 | 0.00 | 0.04 | 0.01 | 94 | 1004.9 |
| 20260506042916 | 47 | 160 | 0.0 | 0.0 | 0.00 | 0.04 | 0.01 | 94 | 1004.7 |
| 20260506042645 | 47 | 160 | 0.0 | 0.0 | 0.00 | 0.04 | 0.01 | 94 | 1004.7 |
| 20260506041912 | 47 | 160 | 0.0 | 0.0 | 0.00 | 0.04 | 0.01 | 94 | 1004.6 |
| 20260506041411 | 47 | 160 | 0.0 | 2.0 | 0.00 | 0.04 | 0.01 | 94 | 1004.6 |
| 20260506040911 | 47 | 160 | 0.0 | 3.0 | 0.00 | 0.04 | 0.01 | 94 | 1004.5 |
| 20260506040411 | 47 | 160 | 1.0 | 4.0 | 0.00 | 0.04 | 0.01 | 94 | 1004.7 |
| 20260506040208 | 48 | 160 | 2.0 | 5.0 | 0.00 | 0.04 | 0.01 | 94 | 1004.7 |
| 20260506035410 | 48 | 139 | 4.0 | 5.0 | 0.00 | 0.04 | 0.01 | 94 | 1004.8 |
| 20260506034909 | 48 | 114 | 5.0 | 5.0 | 0.00 | 0.04 | 0.01 | 94 | 1004.7 |
| 20260506034410 | 48 | 87 | 0.0 | 3.0 | 0.00 | 0.04 | 0.01 | 94 | 1004.7 |
| 20260506034143 | 48 | 87 | 0.0 | 4.0 | 0.00 | 0.04 | 0.01 | 93 | 1004.9 |
| 20260506033408 | 48 | 87 | 1.0 | 4.0 | 0.00 | 0.04 | 0.01 | 93 | 1004.9 |
| 20260506032908 | 48 | 271 | 0.0 | 4.0 | 0.00 | 0.04 | 0.01 | 93 | 1004.9 |
| 20260506032407 | 48 | 271 | 1.0 | 4.0 | 0.00 | 0.04 | 0.01 | 93 | 1004.9 |
| 20260506032143 | 48 | 257 | 2.0 | 4.0 | 0.00 | 0.04 | 0.01 | 93 | 1005.0 |
| 20260506031403 | 48 | 121 | 1.0 | 3.0 | 0.00 | 0.04 | 0.01 | 93 | 1005.0 |
| 20260506030903 | 48 | 164 | 2.0 | 3.0 | 0.00 | 0.04 | 0.01 | 93 | 1005.1 |
| 20260506030402 | 49 | 164 | 0.0 | 4.0 | 0.00 | 0.04 | 0.01 | 93 | 1005.1 |
| 20260506025901 | 49 | 177 | 1.0 | 4.0 | 0.00 | 0.04 | 0.01 | 93 | 1005.2 |
| 20260506025401 | 49 | 157 | 2.0 | 4.0 | 0.00 | 0.04 | 0.01 | 93 | 1005.3 |
| 20260506024902 | 49 | 116 | 2.0 | 5.0 | 0.00 | 0.04 | 0.01 | 93 | 1005.4 |
| 20260506024640 | 49 | 116 | 3.0 | 6.0 | 0.00 | 0.04 | 0.01 | 93 | 1005.4 |
| 20260506023901 | 49 | 95 | 4.0 | 9.0 | 0.00 | 0.04 | 0.01 | 93 | 1005.4 |
| 20260506023402 | 50 | 108 | 5.0 | 13.0 | 0.00 | 0.04 | 0.01 | 93 | 1005.4 |
| 20260506022401 | 50 | 88 | 9.0 | 12.0 | 0.00 | 0.04 | 0.01 | 93 | 1005.5 |
| 20260506021902 | 51 | 57 | 6.0 | 13.0 | 0.00 | 0.04 | 0.01 | 93 | 1005.6 |
| 20260506021416 | 51 | 70 | 7.0 | 13.0 | 0.01 | 0.04 | 0.01 | 93 | 1005.6 |
| 20260506020901 | 51 | 68 | 5.0 | 9.0 | 0.01 | 0.04 | 0.01 | 93 | 1005.9 |
| 20260506020401 | 51 | 107 | 6.0 | 9.0 | 0.01 | 0.04 | 0.01 | 93 | 1006.1 |
| 20260506015900 | 51 | 50 | 4.0 | 9.0 | 0.01 | 0.03 | 0.01 | 93 | 1006.1 |
| 20260506015401 | 51 | 68 | 6.0 | 9.0 | 0.01 | 0.03 | 0.01 | 93 | 1006.2 |
| 20260506014901 | 51 | 49 | 5.0 | 11.0 | 0.01 | 0.03 | 0.01 | 93 | 1006.1 |
| 20260506014634 | 51 | 57 | 6.0 | 15.0 | 0.01 | 0.03 | 0.01 | 93 | 1006.1 |
| 20260506013900 | 51 | 56 | 8.0 | 19.0 | 0.01 | 0.03 | 0.01 | 93 | 1006.0 |
| 20260506013359 | 51 | 67 | 14.0 | 19.0 | 0.01 | 0.03 | 0.01 | 93 | 1006.1 |
| 20260506012859 | 51 | 75 | 13.0 | 16.0 | 0.01 | 0.03 | 0.01 | 93 | 1006.2 |
| 20260506012400 | 51 | 84 | 10.0 | 13.0 | 0.01 | 0.03 | 0.01 | 92 | 1006.2 |
| 20260506012128 | 51 | 63 | 8.0 | 13.0 | 0.01 | 0.03 | 0.01 | 92 | 1006.3 |
| 20260506011358 | 51 | 66 | 7.0 | 13.0 | 0.00 | 0.03 | 0.00 | 92 | 1006.3 |
| 20260506010859 | 51 | 74 | 8.0 | 20.0 | 0.00 | 0.03 | 0.00 | 92 | 1006.2 |
| 20260506010358 | 51 | 43 | 11.0 | 20.0 | 0.00 | 0.03 | 0.00 | 92 | 1006.2 |
| 20260506010200 | 51 | 59 | 13.0 | 18.0 | 0.00 | 0.03 | 0.00 | 92 | 1006.2 |
| 20260506005359 | 51 | 68 | 8.0 | 19.0 | 0.00 | 0.03 | 0.00 | 92 | 1006.3 |
| 20260506004859 | 51 | 53 | 13.0 | 23.0 | 0.00 | 0.03 | 0.00 | 92 | 1006.6 |
| 20260506004358 | 51 | 92 | 13.0 | 23.0 | 0.00 | 0.03 | 0.00 | 92 | 1006.7 |
| 20260506003858 | 51 | 91 | 14.0 | 21.0 | 0.00 | 0.03 | 0.00 | 92 | 1006.7 |
| 20260506003358 | 51 | 91 | 11.0 | 17.0 | 0.00 | 0.03 | 0.00 | 92 | 1006.9 |
| 20260506002858 | 51 | 44 | 10.0 | 17.0 | 0.00 | 0.03 | 0.00 | 92 | 1007.0 |
| 20260506002357 | 51 | 54 | 8.0 | 14.0 | 0.00 | 0.03 | 0.00 | 92 | 1007.1 |
| 20260506001858 | 51 | 28 | 6.0 | 17.0 | 0.00 | 0.03 | 0.00 | 92 | 1007.2 |
| 20260506001357 | 51 | 68 | 10.0 | 17.0 | 0.00 | 0.03 | 0.00 | 92 | 1007.4 |
| 20260506001134 | 51 | 92 | 9.0 | 15.0 | 0.00 | 0.03 | 0.00 | 92 | 1007.4 |
| 20260506000413 | 51 | 75 | 6.0 | 15.0 | 0.00 | 0.03 | 0.00 | 92 | 1007.4 |
| 20260505235858 | 51 | 68 | 6.0 | 10.0 | 0.00 | 0.03 | 0.00 | 92 | 1007.4 |
| 20260505235636 | 51 | 67 | 6.0 | 10.0 | 0.00 | 0.03 | 0.00 | 92 | 1007.6 |
| 20260505234856 | 51 | 64 | 6.0 | 13.0 | 0.00 | 0.03 | 0.00 | 92 | 1007.8 |
| 20260505233856 | 51 | 54 | 11.0 | 20.0 | 0.00 | 0.03 | 0.00 | 92 | 1007.9 |
| 20260505233357 | 51 | 49 | 12.0 | 20.0 | 0.00 | 0.03 | 0.00 | 92 | 1007.9 |
| 20260505232856 | 51 | 33 | 9.0 | 20.0 | 0.00 | 0.03 | 0.00 | 92 | 1007.8 |
| 20260505232356 | 51 | 68 | 10.0 | 16.0 | 0.00 | 0.03 | 0.00 | 92 | 1007.6 |
| 20260505231856 | 51 | 53 | 9.0 | 16.0 | 0.00 | 0.03 | 0.00 | 93 | 1007.6 |
| 20260505231354 | 51 | 36 | 7.0 | 12.0 | 0.00 | 0.03 | 0.00 | 93 | 1007.5 |
| 20260505230855 | 51 | 25 | 7.0 | 18.0 | 0.00 | 0.03 | 0.00 | 93 | 1007.5 |
| 20260505225855 | 52 | 83 | 12.0 | 17.0 | 0.00 | 0.03 | 0.00 | 93 | 1007.9 |
| 20260505225355 | 52 | 43 | 10.0 | 17.0 | 0.00 | 0.03 | 0.00 | 93 | 1008.0 |
| 20260505224855 | 52 | 40 | 8.0 | 12.0 | 0.00 | 0.03 | 0.00 | 94 | 1008.0 |
| 20260505224634 | 52 | 74 | 8.0 | 12.0 | 0.00 | 0.03 | 0.00 | 93 | 1008.2 |
| 20260505223855 | 53 | 67 | 6.0 | 12.0 | 0.00 | 0.03 | 0.00 | 93 | 1008.2 |
| 20260505223354 | 53 | 66 | 7.0 | 14.0 | 0.00 | 0.03 | 0.00 | 93 | 1008.3 |
| 20260505222855 | 53 | 91 | 10.0 | 14.0 | 0.00 | 0.03 | 0.00 | 93 | 1008.2 |
| 20260505222354 | 53 | 64 | 9.0 | 14.0 | 0.00 | 0.03 | 0.00 | 93 | 1008.0 |
| 20260505221854 | 53 | 64 | 5.0 | 11.0 | 0.00 | 0.03 | 0.00 | 93 | 1008.3 |
| 20260505221354 | 53 | 94 | 6.0 | 11.0 | 0.00 | 0.03 | 0.00 | 93 | 1008.2 |
| 20260505220854 | 53 | 83 | 8.0 | 11.0 | 0.00 | 0.03 | 0.00 | 93 | 1008.2 |
| 20260505220354 | 53 | 98 | 6.0 | 10.0 | 0.00 | 0.03 | 0.00 | 93 | 1008.0 |
| 20260505215852 | 53 | 109 | 7.0 | 10.0 | 0.00 | 0.03 | 0.03 | 93 | 1008.0 |
| 20260505215354 | 53 | 99 | 4.0 | 7.0 | 0.00 | 0.03 | 0.03 | 93 | 1007.9 |
| 20260505214854 | 53 | 80 | 5.0 | 7.0 | 0.00 | 0.03 | 0.03 | 92 | 1008.0 |
| 20260505214353 | 53 | 67 | 6.0 | 7.0 | 0.00 | 0.03 | 0.03 | 92 | 1007.9 |
| 20260505213853 | 53 | 81 | 5.0 | 7.0 | 0.00 | 0.03 | 0.03 | 92 | 1007.9 |
| 20260505213353 | 53 | 52 | 2.0 | 5.0 | 0.00 | 0.03 | 0.03 | 92 | 1008.0 |
| 20260505213127 | 53 | 50 | 3.0 | 3.0 | 0.00 | 0.03 | 0.03 | 92 | 1008.1 |
| 20260505212353 | 53 | 60 | 2.0 | 3.0 | 0.00 | 0.03 | 0.03 | 91 | 1008.2 |
| 20260505211852 | 53 | 173 | 1.0 | 5.0 | 0.00 | 0.03 | 0.03 | 91 | 1008.3 |
| 20260505211629 | 53 | 142 | 1.0 | 5.0 | 0.00 | 0.03 | 0.03 | 91 | 1008.3 |
| 20260505210852 | 53 | 94 | 1.0 | 5.0 | 0.00 | 0.03 | 0.03 | 91 | 1008.3 |
| 20260505210352 | 53 | 147 | 4.0 | 7.0 | 0.00 | 0.03 | 0.03 | 91 | 1008.3 |
| 20260505205852 | 53 | 88 | 2.0 | 7.0 | 0.00 | 0.03 | 0.03 | 91 | 1008.3 |
| 20260505205352 | 53 | 359 | 2.0 | 5.0 | 0.00 | 0.03 | 0.03 | 91 | 1008.2 |
| 20260505204852 | 53 | 207 | 2.0 | 6.0 | 0.00 | 0.03 | 0.03 | 91 | 1008.2 |
| 20260505204351 | 53 | 57 | 2.0 | 10.0 | 0.00 | 0.03 | 0.03 | 91 | 1008.3 |
| 20260505203852 | 53 | 98 | 4.0 | 13.0 | 0.00 | 0.03 | 0.03 | 91 | 1008.2 |
| 20260505203623 | 53 | 77 | 5.0 | 13.0 | 0.00 | 0.03 | 0.03 | 91 | 1008.0 |
| 20260505203126 | 53 | 52 | 7.0 | 13.0 | 0.00 | 0.03 | 0.03 | 91 | 1008.0 |
| 20260505202627 | 53 | 53 | 8.0 | 13.0 | 0.00 | 0.03 | 0.03 | 91 | 1008.0 |
| 20260505201851 | 53 | 85 | 9.0 | 13.0 | 0.00 | 0.03 | 0.03 | 91 | 1008.0 |
| 20260505201351 | 53 | 60 | 5.0 | 12.0 | 0.00 | 0.03 | 0.03 | 91 | 1008.1 |
| 20260505200851 | 53 | 68 | 8.0 | 14.0 | 0.00 | 0.03 | 0.03 | 91 | 1008.1 |
| 20260505200351 | 53 | 28 | 8.0 | 14.0 | 0.00 | 0.03 | 0.03 | 91 | 1008.1 |
| 20260505195850 | 53 | 101 | 10.0 | 14.0 | 0.00 | 0.03 | 0.03 | 91 | 1008.1 |
| 20260505195351 | 53 | 54 | 7.0 | 12.0 | 0.00 | 0.03 | 0.03 | 91 | 1008.0 |
| 20260505195138 | 53 | 59 | 5.0 | 12.0 | 0.01 | 0.03 | 0.03 | 91 | 1007.9 |